Tracking 31027 objects as of 19-Jul-2025
HD Live streaming from Space Station
objects crossing your sky now

DELTA 1 DEB

Track DELTA 1 DEB now!
10-day predictions


NORAD ID: 27577
Int'l Code: 1975-052LE
Perigee: 1,032.3 km
Apogee: 1,147.7 km
Inclination: 99.1 °
Period: 106.9 minutes
Semi major axis: 7461 km
RCS: 0.0165 m2 (small)
Launch date: June 12, 1975
Source: United States (US)
Launch site: AIR FORCE WESTERN TEST RANGE (AFWTR)

Note: This is SATELLITE DEBRIS
Your satellite tracking list
KORSAT 7
Track 1 satellite(s)




NASA's NSSDC Master Catalog

Two Line Element Set (TLE):
1 27577U 75052LE  25191.45367001  .00000401  00000-0  70952-3 0  9992
2 27577  99.1163  83.3080 0077368 169.0095  10.2297 13.47122231491531
Source of the keplerian elements: AFSPC